| time (UTC) | temp C | wind direction | speed KPH | gust KPH | rain 1hr cm | rain 24hr cm | rain mn cm | humidity % | barometer mb |
| 20260505041554 | 21 | 282 | 0.0 | 6.4 | 0.00 | 0.00 | 0.00 | 54 | 1025.5 |
| 20260505040055 | 21 | 0 | 0.0 | 4.8 | 0.00 | 0.00 | 0.00 | 55 | 1025.6 |
| 20260505034554 | 20 | 0 | 0.0 | 3.2 | 0.00 | 0.00 | 0.00 | 57 | 1025.9 |
| 20260505033110 | 19 | 0 | 1.6 | 4.8 | 0.00 | 0.00 | 0.00 | 59 | 1026.1 |
| 20260505031552 | 18 | 0 | 0.0 | 4.8 | 0.00 | 0.00 | 0.00 | 61 | 1026.2 |
| 20260505030058 | 18 | 29 | 0.0 | 4.8 | 0.00 | 0.00 | 0.00 | 63 | 1026.3 |
| 20260505024555 | 18 | 0 | 0.0 | 4.8 | 0.00 | 0.00 | 0.00 | 65 | 1026.4 |
| 20260505023057 | 17 | 0 | 0.0 | 3.2 | 0.00 | 0.00 | 0.00 | 66 | 1026.4 |
| 20260505021552 | 17 | 0 | 0.0 | 3.2 | 0.00 | 0.00 | 0.00 | 68 | 1026.4 |
| 20260505020056 | 16 | 0 | 0.0 | 4.8 | 0.00 | 0.00 | 0.00 | 69 | 1026.5 |
| 20260505014555 | 16 | 0 | 0.0 | 3.2 | 0.00 | 0.00 | 0.00 | 70 | 1026.5 |
| 20260505013053 | 16 | 0 | 0.0 | 1.6 | 0.00 | 0.00 | 0.00 | 72 | 1026.5 |
| 20260505011557 | 15 | 0 | 0.0 | 3.2 | 0.00 | 0.00 | 0.00 | 73 | 1026.5 |
| 20260505010058 | 15 | 55 | 0.0 | 6.4 | 0.00 | 0.00 | 0.00 | 75 | 1026.5 |
| 20260505004553 | 14 | 0 | 0.0 | 3.2 | 0.00 | 0.00 | 0.00 | 77 | 1026.6 |
| 20260505003059 | 13 | 355 | 0.0 | 4.8 | 0.00 | 0.00 | 0.00 | 80 | 1026.6 |
| 20260505001553 | 12 | 0 | 0.0 | 3.2 | 0.00 | 0.00 | 0.00 | 83 | 1026.4 |
| 20260505000111 | 12 | 0 | 0.0 | 1.6 | 0.00 | 0.00 | 0.00 | 86 | 1026.3 |
| 20260504234555 | 10 | 68 | 0.0 | 1.6 | 0.00 | 0.00 | 0.00 | 88 | 1026.0 |
| 20260504233054 | 10 | 0 | 0.0 | 1.6 | 0.00 | 0.00 | 0.00 | 89 | 1025.7 |
| 20260504231555 | 8 | 0 | 0.0 | 0.0 | 0.00 | 0.00 | 0.00 | 89 | 1025.6 |
| 20260504230056 | 9 | 0 | 0.0 | 0.0 | 0.00 | 0.00 | 0.00 | 88 | 1025.4 |
| 20260504224559 | 9 | 0 | 0.0 | 0.0 | 0.00 | 0.00 | 0.00 | 87 | 1025.2 |
| 20260504223109 | 10 | 0 | 0.0 | 0.0 | 0.00 | 0.00 | 0.00 | 87 | 1025.0 |
| 20260504221558 | 10 | 0 | 0.0 | 1.6 | 0.00 | 0.00 | 0.00 | 86 | 1025.0 |
| 20260504220114 | 10 | 0 | 0.0 | 3.2 | 0.00 | 0.00 | 0.00 | 86 | 1025.0 |
| 20260504214556 | 11 | 0 | 0.0 | 4.8 | 0.00 | 0.00 | 0.00 | 86 | 1024.6 |
| 20260504213101 | 11 | 88 | 0.0 | 6.4 | 0.00 | 0.00 | 0.00 | 87 | 1024.7 |
| 20260504211556 | 11 | 104 | 0.0 | 4.8 | 0.00 | 0.00 | 0.00 | 88 | 1024.9 |
| 20260504210054 | 10 | 0 | 0.0 | 4.8 | 0.00 | 0.00 | 0.00 | 89 | 1024.9 |
| 20260504204553 | 10 | 0 | 0.0 | 3.2 | 0.00 | 0.00 | 0.00 | 89 | 1024.9 |
| 20260504203055 | 9 | 0 | 0.0 | 0.0 | 0.00 | 0.00 | 0.00 | 88 | 1024.9 |
| 20260504201645 | 9 | 0 | 0.0 | 0.0 | 0.00 | 0.00 | 0.00 | 88 | 1024.9 |
| 20260504200100 | 9 | 0 | 0.0 | 0.0 | 0.00 | 0.00 | 0.00 | 87 | 1024.9 |
| 20260504194559 | 9 | 0 | 0.0 | 0.0 | 0.00 | 0.00 | 0.00 | 87 | 1025.0 |
| 20260504193506 | 10 | 0 | 0.0 | 1.6 | 0.00 | 0.00 | 0.00 | 86 | 1025.0 |
| 20260504191601 | 10 | 0 | 0.0 | 3.2 | 0.00 | 0.00 | 0.00 | 87 | 1025.1 |
| 20260504190108 | 10 | 0 | 0.0 | 1.6 | 0.00 | 0.00 | 0.00 | 87 | 1025.1 |
| 20260504184614 | 10 | 0 | 0.0 | 0.0 | 0.00 | 0.00 | 0.00 | 86 | 1025.2 |
| 20260504183101 | 10 | 0 | 0.0 | 1.6 | 0.00 | 0.00 | 0.00 | 86 | 1025.4 |
| 20260504181553 | 10 | 0 | 0.0 | 3.2 | 0.00 | 0.00 | 0.00 | 86 | 1025.2 |
| 20260504180054 | 10 | 0 | 0.0 | 3.2 | 0.00 | 0.00 | 0.00 | 86 | 1025.3 |
| 20260504174559 | 10 | 94 | 0.0 | 3.2 | 0.00 | 0.00 | 0.00 | 86 | 1025.4 |
| 20260504173056 | 10 | 0 | 0.0 | 1.6 | 0.00 | 0.00 | 0.00 | 86 | 1025.5 |
| 20260504171557 | 10 | 0 | 0.0 | 1.6 | 0.00 | 0.00 | 0.00 | 86 | 1025.5 |
| 20260504090137 | 17 | 175 | 0.0 | 6.4 | 0.00 | 0.00 | 0.00 | 70 | 1024.9 |
| 20260504081553 | 18 | 217 | 3.2 | 11.3 | 0.00 | 0.00 | 0.00 | 66 | 1025.0 |